Tracking 19628 objects as of 27-May-2019
HD Live streaming from Space Station
objects crossing your sky now
Watch Starlink satellites crossing your sky!

FIRST-MOVE

Track FIRST-MOVE now!
10-day predictions
FIRST-MOVE is classified as:


NORAD ID: 39439
Int'l Code: 2013-066Z
Perigee: 583.8 km
Apogee: 677.7 km
Inclination: 97.6 °
Period: 97.2 minutes
Semi major axis: 7001 km
RCS: Unknown
Launch date: November 21, 2013
Source: Germany (GER)
Launch site: Orenburg, Russia (OREN)

Uplink (MHz): 435.520
Downlink (MHz): 145.970
Beacon (MHz): 145.970
Mode: 1200bps BPSK CW
Call sign: MOVE1
Status: Active

aabbcc
Your satellite tracking list
Your tracking list is empty




NASA's NSSDC Master Catalog

Two Line Element Set (TLE):
1 39439U 13066Z   19146.94086514 +.00000294 +00000-0 +42145-4 0  9997
2 39439 097.5712 161.5126 0067086 108.9260 251.9242 14.81812633296487
Source of the keplerian elements: Caltech